This is the latest recevied weather packets stored in our database for station/object AB8Y-13. If no packets are shown the sender has not sent any weather packets the latest 10 day(s).
| Time | Temp. | Humidity | Pressure | Rain* | Wind** | Luminosity | Snow |
|---|---|---|---|---|---|---|---|
| 1777576008 | 10° C | 48% | 1014.8 hPa | 0 mm | - | 151 W/m² | - |
| 1777575705 | 10° C | 47% | 1014.5 hPa | 0 mm | - | 175 W/m² | - |
| 1777575401 | 10° C | 49% | 1014.8 hPa | 0 mm | - | 193 W/m² | - |
| 1777575097 | 10.56° C | 47% | 1014.5 hPa | 0 mm | - | 268 W/m² | - |
| 1777574792 | 10.56° C | 47% | 1014.8 hPa | 0 mm | - | 247 W/m² | - |
| 1777574491 | 10.56° C | 49% | 1014.7 hPa | 0 mm | - | 393 W/m² | - |
| 1777574187 | 10.56° C | 49% | 1014.7 hPa | 0 mm | - | 436 W/m² | - |
| 1777573882 | 10.56° C | 47% | 1014.8 hPa | 0 mm | - | 386 W/m² | - |
| 1777573582 | 11.11° C | 49% | 1014.7 hPa | 0 mm | - | 436 W/m² | - |
| 1777573279 | 11.67° C | 47% | 1014.7 hPa | 0 mm | - | 500 W/m² | - |
| 1777572975 | 11.11° C | 56% | 1014.8 hPa | 0 mm | - | 658 W/m² | - |
| 1777572671 | 10° C | 51% | 1014.8 hPa | 0 mm | - | 796 W/m² | - |
| 1777572371 | 8.89° C | 57% | 1014.8 hPa | 0 mm | - | 467 W/m² | - |
| 1777572068 | 8.89° C | 58% | 1014.9 hPa | 0 mm | - | 277 W/m² | - |
| 1777571768 | 8.89° C | 58% | 1015.1 hPa | 0 mm | - | 197 W/m² | - |
| 1777571465 | 8.89° C | 55% | 1014.9 hPa | 0 mm | - | 170 W/m² | - |
| 1777571161 | 10° C | 47% | 1014.7 hPa | 0 mm | - | 171 W/m² | - |
| 1777570857 | 10° C | 52% | 1014.8 hPa | 0 mm | - | 330 W/m² | - |
| 1777570554 | 10° C | 46% | 1014.8 hPa | 0 mm | - | 424 W/m² | - |
| 1777570250 | 10° C | 49% | 1014.8 hPa | 0 mm | - | 538 W/m² | - |
| 1777569951 | 10° C | 53% | 1014.8 hPa | 0 mm | - | 471 W/m² | - |
| 1777569647 | 9.44° C | 52% | 1014.8 hPa | 0 mm | - | 486 W/m² | - |
| 1777569343 | 8.89° C | 55% | 1014.8 hPa | 0 mm | - | 323 W/m² | - |
| 1777569039 | 8.89° C | 55% | 1014.9 hPa | 0 mm | - | 200 W/m² | - |
| 1777568736 | 8.89° C | 52% | 1015 hPa | 0 mm | - | 149 W/m² | - |
* Rain latest hour (hover to see other rain measurements)
** Current wind speed in m/s (hover to see current wind gust speed)